Eielson Air Force Base, AK

7:34 PM AKDT on July 27, 2016 (GMT -0800)
Eielson Air Force Base

Weather History for PAEI - June, 2013

Change the Weather History Date:

Wednesday, June 5, 2013

  Actual Average Record
Temperature  
Mean Temperature 52 °F -  
Max Temperature 57 °F 69 °F 84 °F (1957)
Min Temperature 47 °F 47 °F 32 °F (1963)
Degree Days  
Heating Degree Days 13    
Growing Degree Days 2 (Base 50)    
Moisture  
Dew Point 42 °F    
Average Humidity 68    
Maximum Humidity 93    
Minimum Humidity 54    
Precipitation  
Precipitation 0.04 in - - ()
Sea Level Pressure  
Sea Level Pressure 29.78 in    
Wind  
Wind Speed 5 mph (WSW)    
Max Wind Speed 12 mph    
Max Gust Speed 22 mph    
Visibility 10 miles    
Events Rain    
Averages and records for this station are not official NWS values.
T = Trace of Precipitation, MM = Missing Value Source: NWS Daily Summary

Daily Weather History Graph

Daily Weather History Graph

Search for Another Location

Airport or City:

Trip Planner

Search our weather history database for the weather conditions in past years. The results will help you decide how hot, cold, wet, or windy it might be!

Date:

Astronomy

Jun. 05, 2013 Rise Set
Actual Time 3:21 AM AKDT 12:14 AM AKDT
Civil Twilight Sun does not set Sun does not set
Nautical Twilight Sun does not set Sun does not set
Astronomical Twilight Sun does not set Sun does not set
Moon 2:59 AM AKDT (6/5) 8:36 PM AKDT (6/5)
Length of Visible Light 24h 00m
Length of Day
20h 52m
Waning Crescent, 7% of the Moon is Illuminated
Jun 5
Waning Crescent
Jun 8
New
Jun 16
First Quarter
Jun 23
Full
Jun 29
Last Quarter

Hourly Weather History & Observations

Time (AKDT) Temp. Dew Point Humidity Pressure Visibility Wind Dir Wind Speed Gust Speed Precip Events Conditions
12:55 AM 51.1 °F 42.8 °F 73% 29.63 in 10.0 mi Calm Calm - 0.01 in   Overcast
1:55 AM 47.3 °F 45.3 °F 93% 29.65 in 10.0 mi South 4.6 mph - N/A   Overcast
2:55 AM 50.7 °F 38.5 °F 63% 29.67 in 10.0 mi WSW 8.1 mph - 0.00 in Rain Light Rain
3:55 AM 50.5 °F 38.8 °F 64% 29.68 in 10.0 mi WSW 4.6 mph - 0.00 in   Overcast
4:55 AM 50.5 °F 38.1 °F 62% 29.69 in 10.0 mi SSW 3.5 mph - N/A   Overcast
5:55 AM 50.0 °F 37.9 °F 63% 29.70 in 10.0 mi SSW 5.8 mph - N/A   Overcast
6:55 AM 50.7 °F 37.4 °F 60% 29.72 in 10.0 mi Calm Calm - N/A   Overcast
7:55 AM 53.8 °F 37.4 °F 54% 29.73 in 10.0 mi WSW 8.1 mph - N/A   Overcast
8:55 AM 54.9 °F 39.4 °F 56% 29.75 in 10.0 mi West 11.5 mph 21.9 mph N/A   Overcast
9:55 AM 53.2 °F 41.4 °F 64% 29.77 in 10.0 mi West 10.4 mph 19.6 mph N/A   Overcast
10:55 AM 53.1 °F 41.0 °F 64% 29.78 in 10.0 mi West 6.9 mph - N/A   Overcast
11:55 AM 53.2 °F 42.6 °F 67% 29.80 in 10.0 mi SW 8.1 mph - 0.00 in Rain Light Rain
12:55 PM 52.7 °F 41.5 °F 66% 29.82 in 10.0 mi SW 8.1 mph - 0.00 in Rain Light Rain
1:55 PM 54.5 °F 39.7 °F 57% 29.83 in 10.0 mi WSW 10.4 mph - 0.00 in   Overcast
2:55 PM 54.1 °F 41.7 °F 63% 29.83 in 10.0 mi WSW 9.2 mph - 0.00 in Rain Light Rain
3:55 PM 56.8 °F 42.4 °F 59% 29.83 in 10.0 mi WSW 11.5 mph - 0.00 in   Overcast
4:55 PM 56.5 °F 43.7 °F 62% 29.83 in 10.0 mi WSW 8.1 mph - 0.00 in Rain Light Rain
5:55 PM 57.0 °F 46.4 °F 68% 29.83 in 10.0 mi SW 9.2 mph - 0.00 in   Overcast
6:55 PM 52.9 °F 48.2 °F 84% 29.84 in 10.0 mi West 4.6 mph - 0.03 in Rain Light Rain
7:55 PM 53.1 °F 48.6 °F 85% 29.84 in 10.0 mi Calm Calm - 0.00 in   Overcast
8:55 PM 54.3 °F 47.8 °F 79% 29.85 in 10.0 mi Calm Calm - N/A   Mostly Cloudy
9:55 PM 54.1 °F 48.2 °F 80% 29.85 in 10.0 mi South 3.5 mph - N/A   Overcast
10:55 PM 53.4 °F 43.5 °F 69% 29.86 in 10.0 mi Calm Calm - N/A   Overcast
11:55 PM 51.3 °F 43.2 °F 74% 29.87 in 10.0 mi West 3.5 mph - 0.00 in   Mostly Cloudy